TimeEST,TemperatureF,Dew PointF,Humidity,Sea Level PressureIn,VisibilityMPH,Wind Direction,Wind SpeedMPH,Gust SpeedMPH,PrecipitationIn,Events,Conditions,WindDirDegrees,DateUTC
12:54 AM,18.0,16.0,92,30.29,10.0,SSW,4.6,-,N/A,,Clear,200,2013-03-09 05:54:00
1:54 AM,19.0,16.0,88,30.28,10.0,SSW,4.6,-,N/A,,Clear,200,2013-03-09 06:54:00
2:54 AM,19.9,17.1,89,30.27,9.0,SE,4.6,-,N/A,,Clear,140,2013-03-09 07:54:00
3:54 AM,16.0,12.9,88,30.27,7.0,Calm,Calm,-,N/A,,Clear,0,2013-03-09 08:54:00
5:54 AM,12.9,9.0,84,30.31,8.0,Calm,Calm,-,N/A,,Clear,0,2013-03-09 10:54:00
6:54 AM,15.1,10.9,84,30.33,7.0,Calm,Calm,-,N/A,,Clear,0,2013-03-09 11:54:00
7:54 AM,19.0,18.0,96,30.33,9.0,Calm,Calm,-,N/A,,Clear,0,2013-03-09 12:54:00
8:54 AM,28.0,23.0,81,30.33,10.0,Calm,Calm,-,N/A,,Clear,0,2013-03-09 13:54:00
9:54 AM,30.9,21.0,67,30.33,10.0,South,3.5,-,N/A,,Clear,170,2013-03-09 14:54:00
10:54 AM,37.0,21.0,52,30.34,10.0,Calm,Calm,-,N/A,,Clear,0,2013-03-09 15:54:00
11:54 AM,41.0,19.9,43,30.32,10.0,Variable,3.5,-,N/A,,Clear,0,2013-03-09 16:54:00
12:54 PM,44.1,21.0,40,30.31,10.0,West,4.6,-,N/A,,Clear,280,2013-03-09 17:54:00
1:54 PM,45.0,21.0,39,30.27,10.0,West,4.6,-,N/A,,Clear,280,2013-03-09 18:54:00
2:54 PM,46.9,21.9,37,30.28,10.0,Variable,4.6,-,N/A,,Clear,0,2013-03-09 19:54:00
3:54 PM,46.9,21.9,37,30.29,10.0,West,6.9,-,N/A,,Clear,270,2013-03-09 20:54:00
4:54 PM,46.9,21.9,37,30.29,10.0,West,4.6,-,N/A,,Clear,260,2013-03-09 21:54:00
5:54 PM,43.0,21.0,42,30.31,10.0,West,4.6,-,N/A,,Clear,280,2013-03-09 22:54:00
6:54 PM,36.0,23.0,59,30.32,10.0,SSW,3.5,-,N/A,,Clear,200,2013-03-09 23:54:00
7:54 PM,30.0,23.0,75,30.32,10.0,SSE,3.5,-,N/A,,Clear,160,2013-03-10 00:54:00
8:54 PM,30.0,23.0,75,30.32,10.0,South,4.6,-,N/A,,Clear,170,2013-03-10 01:54:00
9:54 PM,27.0,21.0,78,30.33,10.0,Calm,Calm,-,N/A,,Clear,0,2013-03-10 02:54:00
10:54 PM,27.0,21.9,81,30.33,10.0,Calm,Calm,-,N/A,,Clear,0,2013-03-10 03:54:00
11:54 PM,26.1,19.9,78,30.32,10.0,Calm,Calm,-,N/A,,Unknown,0,2013-03-10 04:54:00